SAS39C ESSA-EKCH

Flight info

Callsign SAS39C
Flight time 0h 54m
Altitude 36000
Route PETEV N872 ELPAX DCT TOKSI N872 ERNOV
Aircraft A320/M-SDE3FGHIJ1RWXYZ/ALB1

Departure

Time 2026-05-06 19:27
Airport Stockholm-Arlanda Airport (ESSA)

Arrival

Time 2026-05-06 20:21
Airport Copenhagen Kastrup Airport (EKCH)
Time Latitude Longitude Altitude Speed Heading
2026-05-06 18:56 59.65331 17.93139 112 ft 0 kts 250°
2026-05-06 19:16 59.65333 17.93151 112 ft 4 kts 250°
2026-05-06 19:16 59.65342 17.93202 110 ft 4 kts 251°
2026-05-06 19:16 59.65349 17.93242 111 ft 4 kts 257°
2026-05-06 19:16 59.65346 17.93282 110 ft 4 kts 327°
2026-05-06 19:17 59.65324 17.93298 111 ft 2 kts 346°
2026-05-06 19:17 59.65322 17.93299 111 ft 0 kts 346°
2026-05-06 19:22 59.65348 17.93286 110 ft 9 kts 346°
2026-05-06 19:22 59.65416 17.93251 112 ft 12 kts 346°
2026-05-06 19:22 59.65493 17.93171 112 ft 13 kts 319°
2026-05-06 19:23 59.65488 17.92979 112 ft 16 kts 251°
2026-05-06 19:23 59.65444 17.92752 111 ft 19 kts 242°
2026-05-06 19:23 59.65467 17.92597 108 ft 11 kts 341°
2026-05-06 19:23 59.65557 17.92516 104 ft 17 kts 345°
2026-05-06 19:24 59.65683 17.92452 104 ft 20 kts 346°
2026-05-06 19:24 59.65822 17.92443 106 ft 21 kts 10°
2026-05-06 19:24 59.65973 17.92498 109 ft 23 kts 10°
2026-05-06 19:24 59.66128 17.92553 112 ft 23 kts 10°
2026-05-06 19:25 59.66285 17.92610 117 ft 22 kts 11°
2026-05-06 19:25 59.66435 17.92657 118 ft 22 kts
2026-05-06 19:25 59.66585 17.92570 123 ft 23 kts 336°
2026-05-06 19:25 59.66587 17.92358 123 ft 18 kts 211°
2026-05-06 19:26 59.66491 17.92322 118 ft 20 kts 189°
2026-05-06 19:26 59.66150 17.92201 120 ft 84 kts 190°
2026-05-06 19:26 59.65370 17.91917 106 ft 140 kts 190°
2026-05-06 19:26 59.64328 17.91534 405 ft 159 kts 188°
2026-05-06 19:27 59.63238 17.91138 1124 ft 159 kts 188°
2026-05-06 19:27 59.62122 17.90731 1637 ft 173 kts 191°
2026-05-06 19:27 59.61010 17.89525 1943 ft 201 kts 229°
2026-05-06 19:27 59.60205 17.87095 2502 ft 218 kts 237°
2026-05-06 19:28 59.59437 17.84486 3436 ft 220 kts 238°
2026-05-06 19:28 59.58670 17.81847 4353 ft 224 kts 240°
2026-05-06 19:28 59.57909 17.79012 4921 ft 245 kts 243°
2026-05-06 19:28 59.57121 17.75882 5578 ft 260 kts 244°
2026-05-06 19:29 59.56153 17.72899 6490 ft 265 kts 229°
2026-05-06 19:29 59.54901 17.70209 7440 ft 267 kts 228°
2026-05-06 19:29 59.53613 17.67541 8345 ft 271 kts 228°
2026-05-06 19:29 59.52297 17.64853 9245 ft 274 kts 228°
2026-05-06 19:30 59.50965 17.62147 10133 ft 277 kts 228°
2026-05-06 19:30 59.49577 17.59326 10514 ft 298 kts 228°
2026-05-06 19:30 59.48087 17.56285 10826 ft 317 kts 228°
2026-05-06 19:30 59.46542 17.53133 11495 ft 323 kts 228°
2026-05-06 19:31 59.44975 17.49948 12276 ft 325 kts 227°
2026-05-06 19:31 59.43395 17.46740 13070 ft 328 kts 227°
2026-05-06 19:31 59.40221 17.40317 14539 ft 332 kts 227°
2026-05-06 19:32 59.38607 17.37061 15221 ft 334 kts 227°
2026-05-06 19:32 59.36979 17.33782 15897 ft 336 kts 227°
2026-05-06 19:32 59.35344 17.30485 16569 ft 338 kts 227°
2026-05-06 19:32 59.33698 17.27168 17249 ft 341 kts 227°
2026-05-06 19:33 59.32038 17.23834 17927 ft 343 kts 227°
2026-05-06 19:33 59.30362 17.20474 18521 ft 347 kts 227°
2026-05-06 19:33 59.28691 17.17132 19117 ft 349 kts 227°
2026-05-06 19:33 59.26986 17.13722 19769 ft 351 kts 227°
2026-05-06 19:34 59.25277 17.10307 20457 ft 352 kts 227°
2026-05-06 19:34 59.23560 17.06883 21104 ft 354 kts 228°
2026-05-06 19:34 59.21837 17.03448 21759 ft 355 kts 228°
2026-05-06 19:34 59.20045 17.00106 22384 ft 358 kts 223°
2026-05-06 19:35 59.18132 16.96984 22994 ft 359 kts 223°
2026-05-06 19:35 59.16234 16.93898 23584 ft 361 kts 223°
2026-05-06 19:35 59.14301 16.90764 24070 ft 362 kts 223°
2026-05-06 19:35 59.12361 16.87621 24562 ft 363 kts 223°
2026-05-06 19:36 59.10416 16.84471 25048 ft 364 kts 223°
2026-05-06 19:36 59.08464 16.81311 25559 ft 365 kts 223°
2026-05-06 19:36 59.06509 16.78151 25983 ft 366 kts 223°
2026-05-06 19:36 59.04546 16.74983 26438 ft 368 kts 223°
2026-05-06 19:37 59.02575 16.71812 26876 ft 369 kts 222°
2026-05-06 19:37 59.00596 16.68638 27320 ft 370 kts 222°
2026-05-06 19:37 58.98635 16.65494 27767 ft 371 kts 222°
2026-05-06 19:37 58.96646 16.62306 28212 ft 372 kts 222°
2026-05-06 19:38 58.94649 16.59111 28654 ft 373 kts 222°
2026-05-06 19:38 58.92648 16.55910 29092 ft 374 kts 222°
2026-05-06 19:38 58.90637 16.52696 29510 ft 375 kts 222°
2026-05-06 19:38 58.88624 16.49487 29930 ft 376 kts 222°
2026-05-06 19:39 58.86597 16.46264 30286 ft 378 kts 222°
2026-05-06 19:39 58.84593 16.43076 30600 ft 379 kts 221°
2026-05-06 19:39 58.82551 16.39824 30841 ft 382 kts 221°
2026-05-06 19:39 58.80494 16.36553 31167 ft 384 kts 221°
2026-05-06 19:40 58.78431 16.33290 31567 ft 384 kts 221°
2026-05-06 19:40 58.76364 16.30033 31983 ft 383 kts 221°
2026-05-06 19:40 58.74301 16.26792 32401 ft 383 kts 221°
2026-05-06 19:40 58.72240 16.23558 32822 ft 382 kts 221°
2026-05-06 19:41 58.70180 16.20333 33244 ft 382 kts 221°
2026-05-06 19:41 58.68147 16.17150 33665 ft 381 kts 220°
2026-05-06 19:41 58.66094 16.13932 34082 ft 381 kts 220°
2026-05-06 19:41 58.64041 16.10716 34415 ft 381 kts 221°
2026-05-06 19:42 58.61982 16.07496 34692 ft 383 kts 220°
2026-05-06 19:42 58.59910 16.04269 34958 ft 385 kts 220°
2026-05-06 19:42 58.57822 16.01026 35174 ft 387 kts 221°
2026-05-06 19:42 58.55721 15.97772 35402 ft 390 kts 221°
2026-05-06 19:43 58.53611 15.94503 35654 ft 391 kts 221°
2026-05-06 19:43 58.51492 15.91222 35895 ft 393 kts 221°
2026-05-06 19:43 58.47248 15.84649 36004 ft 396 kts 221°
2026-05-06 19:44 58.42957 15.78039 36001 ft 397 kts 220°
2026-05-06 19:44 58.38651 15.71448 36003 ft 397 kts 220°
2026-05-06 19:45 58.34377 15.64901 35983 ft 398 kts 220°
2026-05-06 19:45 58.30048 15.58303 35995 ft 399 kts 220°
2026-05-06 19:46 58.25708 15.51722 35996 ft 399 kts 220°
2026-05-06 19:46 58.21366 15.45140 35994 ft 400 kts 220°
2026-05-06 19:47 58.17050 15.38599 35995 ft 400 kts 220°
2026-05-06 19:47 58.12694 15.32036 35996 ft 400 kts 220°
2026-05-06 19:48 58.08337 15.25502 35984 ft 400 kts 220°
2026-05-06 19:48 58.03971 15.18986 35987 ft 400 kts 220°
2026-05-06 19:49 57.99632 15.12511 35990 ft 400 kts 220°
2026-05-06 19:49 57.95263 15.06006 35985 ft 401 kts 220°
2026-05-06 19:50 57.90879 14.99514 35988 ft 401 kts 220°
2026-05-06 19:50 57.86490 14.93050 35989 ft 401 kts 220°
2026-05-06 19:51 57.82126 14.86633 35997 ft 401 kts 220°
2026-05-06 19:51 57.77739 14.80180 35997 ft 401 kts 220°
2026-05-06 19:52 57.73341 14.73748 35998 ft 401 kts 219°
2026-05-06 19:52 57.68944 14.67345 35990 ft 401 kts 219°
2026-05-06 19:53 57.64542 14.60954 36019 ft 401 kts 220°
2026-05-06 19:53 57.60169 14.54625 35984 ft 401 kts 219°
2026-05-06 19:54 57.55756 14.48246 35985 ft 402 kts 219°
2026-05-06 19:54 57.51336 14.41882 35987 ft 402 kts 219°
2026-05-06 19:55 57.46904 14.35531 35987 ft 402 kts 219°
2026-05-06 19:55 57.42502 14.29242 35986 ft 402 kts 219°
2026-05-06 19:56 57.38071 14.22916 35960 ft 402 kts 219°
2026-05-06 19:56 57.33627 14.16601 35966 ft 403 kts 219°
2026-05-06 19:57 57.29179 14.10294 35969 ft 403 kts 219°
2026-05-06 19:57 57.24750 14.04029 35981 ft 404 kts 219°
2026-05-06 19:58 57.20291 13.97729 35849 ft 404 kts 219°
2026-05-06 19:58 57.18056 13.94591 35591 ft 403 kts 219°
2026-05-06 19:58 57.15828 13.91470 34925 ft 404 kts 219°
2026-05-06 19:59 57.13584 13.88336 34130 ft 406 kts 219°
2026-05-06 19:59 57.11325 13.85187 33182 ft 409 kts 219°
2026-05-06 19:59 57.09058 13.82028 32487 ft 406 kts 219°
2026-05-06 19:59 57.06831 13.78930 32014 ft 399 kts 219°
2026-05-06 20:00 57.04634 13.75873 31482 ft 394 kts 219°
2026-05-06 20:00 57.02493 13.72900 30964 ft 389 kts 219°
2026-05-06 20:00 57.00338 13.69917 30441 ft 385 kts 219°
2026-05-06 20:00 56.98211 13.66973 29899 ft 381 kts 219°
2026-05-06 20:01 56.96107 13.64066 29357 ft 376 kts 219°
2026-05-06 20:01 56.94033 13.61201 28857 ft 371 kts 219°
2026-05-06 20:01 56.91983 13.58373 28347 ft 366 kts 219°
2026-05-06 20:01 56.89964 13.55587 27849 ft 361 kts 219°
2026-05-06 20:02 56.87967 13.52833 27382 ft 358 kts 219°
2026-05-06 20:02 56.86012 13.50145 26912 ft 355 kts 219°
2026-05-06 20:02 56.84044 13.47439 26440 ft 353 kts 219°
2026-05-06 20:02 56.82081 13.44744 25980 ft 352 kts 219°
2026-05-06 20:03 56.80129 13.42070 25528 ft 350 kts 219°
2026-05-06 20:03 56.78180 13.39412 25090 ft 349 kts 219°
2026-05-06 20:03 56.76236 13.36767 24656 ft 348 kts 219°
2026-05-06 20:03 56.74296 13.34126 24226 ft 347 kts 219°
2026-05-06 20:04 56.72367 13.31498 23807 ft 346 kts 219°
2026-05-06 20:04 56.70448 13.28877 23352 ft 344 kts 219°
2026-05-06 20:04 56.68542 13.26272 22907 ft 341 kts 219°
2026-05-06 20:04 56.66676 13.23731 22488 ft 337 kts 219°
2026-05-06 20:05 56.64811 13.21197 22066 ft 333 kts 219°
2026-05-06 20:05 56.62963 13.18691 21656 ft 330 kts 219°
2026-05-06 20:05 56.61129 13.16215 21228 ft 327 kts 219°
2026-05-06 20:05 56.59309 13.13761 20790 ft 325 kts 219°
2026-05-06 20:06 56.57497 13.11322 20350 ft 323 kts 219°
2026-05-06 20:06 56.55541 13.09228 19557 ft 336 kts 203°
2026-05-06 20:06 56.53207 13.08306 18676 ft 351 kts 191°
2026-05-06 20:06 56.50747 13.07697 17839 ft 360 kts 190°
2026-05-06 20:07 56.48277 13.07133 17353 ft 356 kts 190°
2026-05-06 20:07 56.45836 13.06593 16871 ft 351 kts 189°
2026-05-06 20:07 56.43455 13.06065 16405 ft 348 kts 189°
2026-05-06 20:07 56.41082 13.05533 16091 ft 340 kts 189°
2026-05-06 20:08 56.38731 13.04998 15617 ft 339 kts 189°
2026-05-06 20:08 56.36398 13.04459 15177 ft 337 kts 189°
2026-05-06 20:08 56.34082 13.03918 14732 ft 335 kts 189°
2026-05-06 20:08 56.31776 13.03379 14291 ft 334 kts 189°
2026-05-06 20:09 56.29477 13.02838 13857 ft 332 kts 189°
2026-05-06 20:09 56.27198 13.02305 13378 ft 330 kts 189°
2026-05-06 20:09 56.24923 13.01777 12880 ft 328 kts 189°
2026-05-06 20:09 56.22663 13.01258 12403 ft 326 kts 189°
2026-05-06 20:10 56.20446 13.00747 11939 ft 324 kts 189°
2026-05-06 20:10 56.18214 13.00232 11477 ft 323 kts 189°
2026-05-06 20:10 56.15993 12.99720 11021 ft 321 kts 189°
2026-05-06 20:10 56.13783 12.99208 10566 ft 320 kts 189°
2026-05-06 20:11 56.11580 12.98700 10124 ft 319 kts 188°
2026-05-06 20:11 56.09382 12.98196 9663 ft 318 kts 188°
2026-05-06 20:11 56.07196 12.97693 9157 ft 314 kts 188°
2026-05-06 20:11 56.05075 12.97210 8683 ft 301 kts 188°
2026-05-06 20:12 56.03064 12.96751 8219 ft 290 kts 188°
2026-05-06 20:12 56.01094 12.96299 7751 ft 281 kts 188°
2026-05-06 20:12 55.99178 12.95861 7290 ft 274 kts 188°
2026-05-06 20:12 55.97312 12.95434 6837 ft 267 kts 187°
2026-05-06 20:13 55.95491 12.95016 6439 ft 260 kts 187°
2026-05-06 20:13 55.93722 12.94608 6045 ft 252 kts 187°
2026-05-06 20:13 55.92008 12.94215 5629 ft 245 kts 187°
2026-05-06 20:13 55.90339 12.93832 5256 ft 239 kts 187°
2026-05-06 20:14 55.88719 12.93465 4880 ft 237 kts 186°
2026-05-06 20:14 55.87093 12.93097 4486 ft 233 kts 186°
2026-05-06 20:14 55.86019 12.92852 4219 ft 228 kts 185°
2026-05-06 20:14 55.84484 12.92506 3831 ft 222 kts 185°
2026-05-06 20:15 55.78500 12.90914 3000 ft 207 kts 199°
2026-05-06 20:16 55.77287 12.89635 3002 ft 198 kts 216°
2026-05-06 20:16 55.76259 12.88118 3034 ft 186 kts 218°
2026-05-06 20:16 55.75322 12.86664 3008 ft 174 kts 218°
2026-05-06 20:16 55.74423 12.85261 2999 ft 170 kts 218°
2026-05-06 20:17 55.73537 12.83878 2907 ft 169 kts 218°
2026-05-06 20:17 55.72668 12.82521 2733 ft 168 kts 219°
2026-05-06 20:17 55.71795 12.81159 2523 ft 166 kts 218°
2026-05-06 20:17 55.70967 12.79866 2311 ft 151 kts 219°
2026-05-06 20:18 55.70202 12.78672 2107 ft 144 kts 218°
2026-05-06 20:18 55.69460 12.77517 1916 ft 141 kts 218°
2026-05-06 20:18 55.68726 12.76374 1720 ft 140 kts 218°
2026-05-06 20:18 55.67999 12.75242 1524 ft 139 kts 218°
2026-05-06 20:19 55.67277 12.74118 1330 ft 138 kts 219°
2026-05-06 20:19 55.66556 12.72997 1135 ft 138 kts 218°
2026-05-06 20:19 55.65839 12.71882 935 ft 137 kts 217°
2026-05-06 20:19 55.65137 12.70791 749 ft 135 kts 217°
2026-05-06 20:20 55.64436 12.69705 562 ft 134 kts 217°
2026-05-06 20:20 55.63739 12.68621 385 ft 132 kts 217°
2026-05-06 20:20 55.63053 12.67553 213 ft 131 kts 218°
2026-05-06 20:20 55.62372 12.66492 42 ft 130 kts 218°
2026-05-06 20:21 55.61782 12.65579 26 ft 90 kts 221°
2026-05-06 20:21 55.61440 12.65050 24 ft 40 kts 221°
2026-05-06 20:21 55.61313 12.64812 25 ft 25 kts 237°
2026-05-06 20:21 55.61244 12.64551 26 ft 18 kts 250°
2026-05-06 20:22 55.61213 12.64388 24 ft 7 kts 251°
2026-05-06 20:22 55.61201 12.64326 25 ft 0 kts 251°
2026-05-06 20:23 55.61201 12.64323 25 ft 2 kts 251°
2026-05-06 20:23 55.61190 12.64266 25 ft 8 kts 255°
2026-05-06 20:23 55.61206 12.64145 24 ft 13 kts 308°
2026-05-06 20:23 55.61297 12.64131 24 ft 16 kts 30°
2026-05-06 20:24 55.61401 12.64248 24 ft 19 kts 33°
2026-05-06 20:24 55.61518 12.64385 24 ft 21 kts 34°
2026-05-06 20:24 55.61627 12.64509 26 ft 18 kts 32°
2026-05-06 20:24 55.61746 12.64560 26 ft 19 kts 349°
2026-05-06 20:25 55.61874 12.64517 24 ft 17 kts 349°
2026-05-06 20:25 55.62003 12.64475 24 ft 20 kts 349°
2026-05-06 20:25 55.62141 12.64429 24 ft 19 kts 350°
2026-05-06 20:25 55.62259 12.64394 22 ft 18 kts 360°
2026-05-06 20:26 55.62356 12.64432 24 ft 12 kts 15°
2026-05-06 20:26 55.62369 12.64438 24 ft 0 kts 14°
2026-05-06 20:27 55.62402 12.64454 24 ft 9 kts 15°
2026-05-06 20:27 55.62464 12.64501 25 ft 11 kts 52°
2026-05-06 20:27 55.62470 12.64641 24 ft 13 kts 48°
2026-05-06 20:27 55.62556 12.64653 24 ft 11 kts 358°
2026-05-06 20:28 55.62609 12.64656 24 ft 0 kts
2026-05-06 20:28 55.62624 12.64659 24 ft 4 kts
2026-05-06 20:28 55.62641 12.64620 24 ft 6 kts 286°
2026-05-06 20:29 55.62645 12.64585 24 ft 0 kts 281°
2026-05-06 20:29 55.62646 12.64582 24 ft 1 kts 281°
2026-05-06 20:29 55.62648 12.64562 24 ft 0 kts 281°
2026-05-06 20:29 55.62648 12.64561 24 ft 0 kts 281°